Regional Weather Roundup
Issued by NWS Green Bay, WI

Home | Current Version | Previous Version | Graphics & Text | Print | Product List | Glossary Off
Versions: 1 2 3 4 5 6 7 8 9 10 11 12 13 14 15 16 17 18 19 20 21 22 23 24 25 26 27 28 29 30 31 32 33 34 35 36 37 38 39 40 41 42 43 44 45 46 47 48 49 50

000
ASUS43 KGRB 301259
RWRGRB

NORTH-CENTRAL AND NORTHEAST WISCONSIN REGIONAL WEATHER ROUNDUP
NATIONAL WEATHER SERVICE GREEN BAY WI
700 AM CST FRI JAN 30 2015

WIZ005-009-010>012-018-019-301400-
NORTH CENTRAL WISCONSIN

CITY           SKY/WX    TMP DP  RH WIND       PRES   REMARKS
IRONWOOD       CLOUDY    10   5  79 W6        30.40F WCI   1
MANITOWISH WTR NOT AVBL
ARBOR VITAE    NOT AVBL
EAGLE RIVER    NOT AVBL
LAND O LAKES   NOT AVBL
RHINELANDER    CLOUDY    10   2  69 N5        30.40S WCI   2
PHILLIPS       NOT AVBL
ANTIGO         NOT AVBL
TOMAHAWK       NOT AVBL
MERRILL        NOT AVBL
$$

WIZ013-073-301400-
NORTHEAST WISCONSIN

CITY           SKY/WX    TMP DP  RH WIND       PRES   REMARKS
IRON MOUNTAIN  CLOUDY    10   1  67 NW7       30.43R WCI  -1
MARINETTE      CLOUDY    12   1  62 N5        30.49R WCI   4
$$

WIZ017-030-035>037-045-301400-
CENTRAL WISCONSIN

CITY           SKY/WX    TMP DP  RH WIND       PRES   REMARKS
MEDFORD        NOT AVBL
WAUSAU         CLOUDY    12   3  67 NW3       30.43S
MOSINEE        CLEAR      7   1  78 NW3       30.45R
MARSHFIELD     PTCLDY     6   1  80 NW3       30.46R
WISC RAPIDS    CLEAR      9   1  70 W7        30.50R WCI  -2
STEVENS POINT  NOT AVBL
WAUPACA        NOT AVBL
SHAWANO        NOT AVBL
CLINTONVILLE   NOT AVBL
$$

WIZ038-039-048-051-301400-
FOX VALLEY

CITY           SKY/WX    TMP DP  RH WIND       PRES   REMARKS
NWS GREEN BAY  CLOUDY    14   5  67 N3        30.49R
APPLETON       CLOUDY    16   5  62 NW7       30.48R WCI   6
OSHKOSH        PTCLDY    14   3  61 W5        30.48R WCI   6
FOND DU LAC    FLURRIES  11   2  67 NW7       30.48R WCI   0
$$

WIZ022-050-052-301400-
EAST CENTRAL WISCONSIN

CITY           SKY/WX    TMP DP  RH WIND       PRES   REMARKS
STURGEON BAY   MOCLDY    10   0  61 N6        30.49R WCI   1
MANITOWOC      NOT AVBL
SHEBOYGAN      CLOUDY    15   7  70 NW3       30.48R
$$

LMZ563-521-522-541>543-301400-
LAKESHORE

STATION/POSITION TIME  TEMP    WIND        PRES    VSBY  WAVE
                       AIR SEA DIR/SP/G                  HT/PER
                 (UTC) (F)     (DEG/KT/KT) (MB)    (MI)  (FT/S)
SHEBOYGAN LKSHOR 1200   18     350/ 14/ 16 1033.0R
KEWAUNEE LKSHORE 1200   13      10/  5/  8 1031.3R
NORTHPORT PIER   1200   14     310/ 13/ 19 1031.5R
CHAMBERS ISLAND  1200   13     330/ 10/ 12 1032.2R
MENOMINEE LKSHOR 1200   13     350/ 21     1032.8R
$$



USA.gov is the U.S. government's official web portal to all federal, state and local government web resources and services.